www.pogodaiklimat.ru

Погода и климат >> Архив погоды >> Лаос >> Attapeu


ПОГОДА в Attapeu

  • Прогноз погоды в Attapeu
  • Монитор погоды в Attapeu
  • Климат города

АРХИВ ПОГОДЫ в Attapeu

Время (UTC), дата Ветер
(напр.,м/с)
 
Видим.   Явления Облачность Т
(С)
Тd
(С)
f
(%)
Тe
(С)
Тes
(С)
Комфортность P
(гПа)
Po
(гПа)
Тmin
(С)
Tmax
(С)
R
(мм)
R24
(мм)
S
(см)
00 14.08 штиль 0 15 км 3/1 600 м
[Cu hum Ci fib]
+25.0 +23.5 91 +34 +36 очень
душно
1008.6 997.8 +25.0 4
03 14.08 З 1 18 км 4/3 600 м
[Cu hum Ci fib]
+29.0 +24.0 74 +40 +54 опасность
солнечного
удара
1008.5 997.9
06 14.08 Ю 1 18 км 3/3 600 м
[Cu hum Ci fib]
+33.0 +25.3 64 +47 +64 опасность
перегрева
1006.4 995.9
12 14.08 штиль 0 3000 м дымка {туман} 10/8 600 м
[Cu Sc Ac As]
+31.0 +25.9 74 +46 +46 опасность
перегрева
1004.9 994.4 +34.0
00 15.08 штиль 0 6000 м дымка 9/6 600 м
[Cu Sc Ac As]
+26.6 +24.3 87 +37 +38 очень
душно
1007.1 996.4 +26.4
03 15.08 Ю 1 10 км 9/6 600 м
[Cu Sc Ac As]
+31.0 +26.1 75 +46 +50 опасность
перегрева
1007.9 997.2
06 15.08 З 1 15 км 8/5 600 м
[Cu med, cong Ac lent Ci sp]
+34.5 +26.2 62 +51 +59 опасность
перегрева
1005.6 995.0
09 15.08 Ю 2 10 км 9/6 600 м
[Cu Sc Ac As]
+32.5 +25.5 67 +47 +48 опасность
перегрева
1003.0 992.5
12 15.08 Ю 1 3000 м дымка {туман} 8/5 600 м
[Cu med, cong Ac lent Ci sp]
+29.5 +26.0 81 +44 +44 опасность
перегрева
1004.6 994.0 +34.5
00 16.08 штиль 0 6000 м дымка 10/8 600 м
[Cu Sc Ac As]
+25.0 +24.3 96 +35 +35 очень
душно
1007.6 996.9 +24.5 69
03 16.08 штиль 0 10 км 8/5 600 м
[Frnb Ac lent Ci sp]
+26.7 +24.1 86 +37 +45 очень
душно
1007.9 997.2
06 16.08 ЮВ 1 10 км 8/5 600 м
[Cu med, cong Ac lent Ci sp]
+29.4 +24.5 75 +42 +50 опасность
перегрева
1005.1 994.5
09 16.08 Ю 1 10 км 9/6 600 м
[Cu Sc Ac As]
+31.5 +25.2 69 +45 +46 опасность
перегрева
1002.8 992.3
12 16.08 штиль 0 3000 м дымка {туман} 6/4 600 м
[Cu med, cong Ac trans Ci sp]
+28.5 +25.2 82 +41 +41 опасность
перегрева
1003.7 993.1 +32.5
00 17.08 штиль 0 15 км 8/5 600 м
[Cu med, cong Ac lent Ci sp]
+25.0 +23.8 93 +34 +35 очень
душно
1005.7 995.0 +25.0 3
03 17.08 З 1 15 км 5/4 600 м
[Cu Sc Ci sp]
+29.0 +25.5 81 +43 +54 опасность
перегрева
1006.1 995.5
06 17.08 Ю 1 15 км 5/4 600 м
[Cu Sc Ci sp]
+31.6 +25.1 69 +46 +59 опасность
перегрева
1003.3 992.8
09 17.08 Ю 1 15 км 6/4 600 м
[Cu Sc Ci sp]
+32.5 +25.5 67 +47 +51 опасность
перегрева
1000.6 990.4
12 17.08 С 1 3000 м гроза, ливневой дождь {туман} 10/10 600 м
[Cb cap]
+28.0 +22.9 74 +37 +37 очень
душно
1002.6 992.1 +32.5
00 18.08 штиль 0 6000 м дымка 10/8 600 м
[Cu Sc Ac As]
+25.5 +24.0 91 +35 +35 очень
душно
1007.2 996.5 +25.0 23
03 18.08 З 1 8000 м мгла {туман} 9/6 600 м
[Cu Sc Ac As]
+27.5 +26.4 94 +42 +46 опасность
перегрева
1007.4 996.7
06 18.08 штиль 0 18 км 3/3 600 м
[Cu hum Ci fib]
+31.5 +24.4 66 +44 +63 опасность
перегрева
1004.6 994.0
09 18.08 В 2 6000 м гроза, ливневой дождь 10/10 600 м
[Cb cap]
+29.0 +25.5 81 +43 +43 опасность
перегрева
1003.8 993.3 0.1
12 18.08 штиль 0 3000 м слабый дождь 9/6 600 м
[Cu Sc Ac As]
+25.5 +24.0 91 +35 +35 очень
душно
1006.4 995.8 +32.5 13
00 19.08 штиль 0 6000 м дымка 10/8 600 м
[Cu Sc Ac As]
+25.5 +24.0 91 +35 +35 очень
душно
1007.6 996.9 +25.0 16
03 19.08 штиль 0 10 км 9/6 600 м
[Cu Sc Ac As]
+28.9 +24.8 79 +41 +46 опасность
перегрева
1007.6 997.0
06 19.08 СВ 1 15 км 6/4 600 м
[Cu med, cong Ac trans Ci sp]
+31.6 +27.5 79 +51 +63 опасность
перегрева
1004.3 993.8
09 19.08 Ю 1 15 км 8/5 600 м
[Cu med, cong Ac lent Ci sp]
+32.8 +25.5 66 +48 +50 опасность
перегрева
1002.5 992.0
12 19.08 Ю 1 3000 м дымка {туман} 6/4 600 м
[Cu med, cong Ac trans Ci sp]
+29.0 +25.5 81 +43 +43 опасность
перегрева
1003.6 993.0 +32.8
00 20.08 штиль 0 8000 м дымка 8/5 600 м
[Cu med, cong Ac lent Ci sp]
+26.4 +25.1 93 +38 +39 очень
душно
1006.2 995.5 +26.0
03 20.08 Ю 1 15 км 6/5 600 м
[Cu Sc Ci sp]
+30.0 +25.2 76 +44 +54 опасность
перегрева
1006.4 995.8
06 20.08 Ю 1 9000 м гроза без осадков {туман} 6/5 600 м
[Cb cap Ci sp]
+33.0 +25.3 64 +47 +59 опасность
перегрева
1004.1 993.7
09 20.08 Ю 1 15 км 6/4 600 м
[Cu med, cong Ci sp]
+33.0 +26.0 67 +49 +52 опасность
перегрева
1001.9 991.6
12 20.08 Ю 1 3000 м дымка {туман} 9/6 600 м
[Cu Sc Ac As]
+30.0 +25.8 78 +45 +45 опасность
перегрева
1003.0 992.5 +33.0

 

Местоположение метеостанции Attapeu (Лаос): широта 14.80 долгота 106.83 высота над уровнем моря 105 м.

В архиве по умолчанию представлена погода в Attapeu за последнюю неделю. Архивные данные за месяц целиком и за предыдущие месяцы, начиная с января 2011 года, Вы можете получить, выбрав интересующий диапазон дат из раскрывающегося списка и нажав кнопку "Ввод!".

Внимание! Время в таблицах - всемирное. Для получения местного времени необходимо прибавить поправку, которая в Attapeu равна 7 ч.

Смотрите также архив погоды в соседних городах и на ближайших метеорологических станциях:

Погода в Sekong (Лаос) (61 км)
Погода в Saravane (Лаос) (107 км)
Погода в Pakse (Лаос) (118 км)
Погода в Pleiku City (Вьетнам) (156 км)
Погода в Hue (Вьетнам) (198 км)
Погода в Quang Ngai (Вьетнам) (213 км)
Погода в Da Nang (Вьетнам) (216 км)
Погода в Ubon Ratchathani (Таиланд) (217 км)
Погода в Banmethuot (Вьетнам) (272 км)
Погода в Si Saket Agromet (Таиланд) (278 км)

Пояснения к столбцам:

Ветер - указаны скорость ветра в м/с - средняя за 10 мин, порывы в срок и между сроками (в фигурных скобках) и направление, откуда дует ветер: С - северный, СВ - северо-восточный, В - восточный, ЮВ - юго-восточный, Ю - южный, ЮЗ - юго-западный, З - западный, СЗ - северо-западный.
Видимость - горизонтальная дальность видимости в метрах или километрах. При видимости от 1 до 10 км при отсутствии осадков обычно наблюдается дымка, при ухудшении видимости до 1 км и менее - туман. В сухую погоду видимость может ухудшаться дымом, пылью или мглою.
Явления - указаны атмосферные явления, наблюдавшиеся в срок или в последний час перед сроком; фигурными скобками обозначены явления, наблюдавшиеся между сроками (за 1-3 часа до срока); квадратными скобками обозначены град или гололедные отложения с указанием их диаметра в мм.
Облачность - указаны через наклонную черту общая и нижняя облачность в баллах и высота нижней границы облаков в метрах; квадратными скобками обозначены формы облаков: Ci - перистые, Cs - перисто-слоистые, Cc - перисто-кучевые, Ac - высококучевые, As - высокослоистые, Sc - слоисто-кучевые, Ns - слоисто-дождевые, Cu - кучевые, Cb - кучево-дождевые. Подробнее классификацию облаков см. в Атласе облаков (PDF).
T - Температура воздуха - температура, измеренная на высоте 2 м над землей.
Td - Температура точки росы - температура, при понижении до которой содержащийся в воздухе водяной пар достигнет насыщения.
f - Относительная влажность воздуха - влажноcть воздуха, измеренная на высоте 2 м над землей.
Te - Эффективная температура - температура, которую ощущает одетый по сезону человек в тени. Характеристика душности погоды. При расчете учитывается влияние влажности воздуха и скорости ветра на теплоощущения человека.
Tes - Эффективная температура на солнце - температура, которую ощущает человек, с поправкой на солнечный нагрев. Характеристика знойности погоды. Зависит от высоты солнца над горизонтом, облачности и скорости ветра. Ночью, в пасмурную погоду, а также при ветре 12 м/с и более поправка равна нулю.
P - Атмосферное давление - приведенное к уровню моря атмосферное давление.
Po - Атмосферное давление - измеренное на уровне метеостанции атмосферное давление.
Tmin - Минимальная температура - минимум температуры воздуха на высоте 2 м над землей.
Tmax - Максимальная температура - максимум температуры воздуха на высоте 2 м над землей.
R - Количество осадков - Количество выпавших осадков за период времени, мм. При наведении курсора мыши на число - период времени, за который выпало указанное количество осадков.
R24 - Количество осадков - Количество выпавших осадков за 24 часа, мм.
S - Снежный покров - Высота снежного покрова, см. При наведении курсора мыши на число - состояние снежного покрова и степень покрытия местности в баллах.